Location: Newark
(41.9000°N, 12.4833°E)
Time: 02:43:13
(UTC+00:00)

NOAA 18 - Pass Details

Date: 22 May 2019
Orbit: 841 x 861 km, 99.1° (Epoch: 15 June)

Event Time Altitude Azimuth Distance (km) Brightness Sun altitude
Rises 18:59:04 0° 160° (SSE) 3,415 7.9 -5.4°
Reaches altitude 10° 19:01:25 10° 159° (SSE) 2,485 7.2 -5.8°
Maximum altitude 19:06:56 79° 74° (ENE) 881 5.3 -6.7°
Drops below altitude 10° 19:12:31 10° 348° (NNW) 2,508 8.4 -7.5°
Sets 19:14:54 0° 348° (NNW) 3,449 9.2 -7.9°
